Regional Weather Roundup
Issued by NWS New Orleans/Baton Rouge, LA

Home | Current Version | Previous Version | Text Only | Print | Product List | Glossary On
Versions: 1 2 3 4 5 6 7 8 9 10 11 12 13 14 15 16 17 18 19 20 21 22 23 24 25 26 27 28 29 30 31 32 33 34 35 36 37 38 39 40 41 42 43 44 45 46 47 48 49 50
485
ASUS44 KLIX 300705
RWRLIX
NEW ORLEANS REGIONAL WEATHER ROUNDUP
NATIONAL WEATHER SERVICE NEW ORLEANS LA
200 AM CDT THU OCT 30 2014

NOTE: "FAIR" INDICATES FEW OR NO CLOUDS BELOW 12,000 FEET WITH NO
      SIGNIFICANT WEATHER AND/OR OBSTRUCTIONS TO VISIBILITY.
      SKY/WX - SKY CONDITION AND SIGNIFICANT WEATHER.
      TMP - AIR TEMPERATURE.     DP    - DEWPOINT TEMPERATURE.
      RH  - RELATIVE HUMIDITY.   PRES  - PRESSURE.
      HI  - HEAT INDEX.          WCI   - WIND CHILL INDEX.

*  THESE STATIONS ARE NOT NWS OR FAA STATIONS AND ARE NOT UNDER
   NWS QUALITY CONTROL.

LAZ038-040-048-061>063-065>067-069-300800-
SOUTHEAST LOUISIANA

CITY           SKY/WX    TMP DP  RH WIND       PRES   REMARKS
N.O. AUDUBON     N/A     69  58  67 MISG        N/A
N.O. INTL ARPT PTCLDY    68  50  52 NE17      30.07S
N.O. LAKEFRONT CLOUDY    69  52  54 NE22      30.08S
N.O. DOWNTOWN* CLOUDY    68  52  56 NE10      30.08R
SLIDELL        CLOUDY    63  51  65 N8        30.07S
BATON ROUGE    MOCLDY    58  49  72 NE6       30.10S
BOOTHVILLE     CLOUDY    71  65  81 N12G18    30.04S
BELLE CHASSE   CLOUDY    68  59  73 NE10      30.06S
BOGALUSA*        N/A     58  49  74 N6        30.11S
NEW ROADS*       N/A     55  50  83 CALM      30.11S
GONZALES*      CLOUDY    63  54  74 NE6       30.08S
HAMMOND*       NOT AVBL
HOUMA*         CLEAR     64  60  87 N8        30.06S
PORT FOURCHON* CLOUDY    73  68  83 NE12      30.07S

$$

MSZ070-080>082-300800-
SOUTHERN MISSISSIPPI

CITY           SKY/WX    TMP DP  RH WIND       PRES   REMARKS
MCCOMB         CLEAR     56  46  69 N7        30.11S
GULFPORT       CLEAR     63  52  67 N9        30.06S
BILOXI         PTCLDY    63  55  76 NE13      30.06S
PASCAGOULA     CLOUDY    62  57  83 N10       30.06F

$$

COASTAL OBSERVATIONS
LAKE AND NEARSHORE STATIONS

STATION/POSITION TIME  TEMP    WIND        PRES    WAVE
                       AIR SEA DIR/SP/G            HT/PER
                 (UTC) (F)     (DEG/KT/KT) (MB)    (FT/S)
PASCAGOULA       0600   65      20/  8/ 11 1017.4
WAVELAND YACHT   0600   65      20/ 11/ 14 1017.6
GRAND ISLE       0600   73 77   40/ 10/ 14 1017.6
SOUTHWEST PASS   0600   72 78              1017.1
NEW CANAL        0600   69 72   50/ 21/ 25 1018.5
SHELL BEACH      0600   69 71   30/ 18/ 20 1017.7

OFFSHORE STATIONS

STATION/POSITION TIME  TEMP    WIND        PRES    WAVE
                       AIR SEA DIR/SP/G            HT/PER
                 (UTC) (F)     (DEG/KT/KT) (MB)    (FT/S)
64 S DAUPHIN ISL 0643   74 78   20/ 19/ 23 1016.1    2/ 7

$$




USA.gov is the U.S. government's official web portal to all federal, state and local government web resources and services.